Location: Kapla
(46.2483°N, 15.0094°E)
Time: 16:10:24
(UTC+00:00)

Helios 1A Rocket - Pass Details

Date: 03 March 2021
Orbit: 563 x 585 km, 98.3° (Epoch: 18 April)

Event Time Altitude Azimuth Distance (km) Brightness Sun altitude
Rises 17:37:07 0° 152° (SSE) 2,768 6.1 -9.1°
Reaches altitude 10° 17:39:18 10° 147° (SSE) 1,871 5.2 -9.5°
Maximum altitude 17:43:13 52° 72° (ENE) 716 3.0 -10.1°
Drops below altitude 10° 17:47:10 10° 356° (N) 1,875 5.6 -10.8°
Sets 17:49:21 0° 351° (N) 2,775 6.6 -11.2°
